TimeMST,TemperatureF,Dew PointF,Humidity,Sea Level PressureIn,VisibilityMPH,Wind Direction,Wind SpeedMPH,Gust SpeedMPH,PrecipitationIn,Events,Conditions,WindDirDegrees,DateUTC
12:58 AM,44.8,18.9,36,29.78,10.0,SE,5.8,-,N/A,,Mostly Cloudy,130,2012-12-14 07:58:00
1:41 AM,44.6,19.4,37,29.88,10.0,South,2.3,-,N/A,Rain,Light Rain,170,2012-12-14 08:41:00
1:55 AM,44.6,26.6,49,29.87,10.0,East,1.2,-,N/A,,Mostly Cloudy,90,2012-12-14 08:55:00
1:58 AM,44.8,27.3,50,29.75,10.0,East,1.2,-,0.00,,Mostly Cloudy,90,2012-12-14 08:58:00
2:12 AM,44.6,26.6,49,29.86,10.0,SSW,3.5,-,N/A,Rain,Light Rain,210,2012-12-14 09:12:00
2:20 AM,46.4,28.4,50,29.86,10.0,South,10.4,-,N/A,,Mostly Cloudy,170,2012-12-14 09:20:00
2:58 AM,45.5,25.3,45,29.73,10.0,West,3.5,-,0.00,,Overcast,280,2012-12-14 09:58:00
3:58 AM,55.4,30.0,38,29.65,10.0,SSE,15.0,21.9,N/A,,Partly Cloudy,160,2012-12-14 10:58:00
4:58 AM,56.1,32.4,41,29.62,10.0,SSE,17.3,24.2,N/A,,Mostly Cloudy,160,2012-12-14 11:58:00
5:58 AM,55.9,34.5,45,29.61,10.0,SSE,20.7,26.5,N/A,,Partly Cloudy,150,2012-12-14 12:58:00
6:58 AM,57.9,37.9,47,29.62,9.0,SSE,23.0,38.0,N/A,,Partly Cloudy,160,2012-12-14 13:58:00
7:00 AM,57.2,41.0,55,29.76,9.0,South,23.0,38.0,N/A,Rain,Light Rain,170,2012-12-14 14:00:00
7:03 AM,55.4,39.2,54,29.76,9.0,South,19.6,31.1,N/A,Rain,Light Rain,190,2012-12-14 14:03:00
7:05 AM,55.4,37.4,51,29.77,9.0,SW,20.7,31.1,N/A,Rain,Light Rain,230,2012-12-14 14:05:00
7:08 AM,51.8,39.2,62,29.77,5.0,WSW,23.0,29.9,N/A,Rain,Light Rain,240,2012-12-14 14:08:00
7:25 AM,48.2,39.2,71,29.78,4.0,WSW,16.1,-,N/A,Rain,Light Rain,250,2012-12-14 14:25:00
7:50 AM,46.4,41.0,81,29.77,10.0,SSW,10.4,-,N/A,,Mostly Cloudy,200,2012-12-14 14:50:00
7:58 AM,46.4,41.0,81,29.68,10.0,South,11.5,-,0.02,,Mostly Cloudy,190,2012-12-14 14:58:00
8:58 AM,52.0,45.7,79,29.65,10.0,SSE,9.2,-,N/A,,Partly Cloudy,160,2012-12-14 15:58:00
9:51 AM,55.4,46.4,72,29.76,10.0,SSW,23.0,28.8,N/A,,Partly Cloudy,210,2012-12-14 16:51:00
9:58 AM,53.6,42.8,67,29.68,10.0,West,29.9,36.8,N/A,,Mostly Cloudy,260,2012-12-14 16:58:00
10:02 AM,50.0,41.0,71,29.79,10.0,WSW,31.1,39.1,N/A,Rain,Light Rain,250,2012-12-14 17:02:00
10:19 AM,46.4,39.2,76,29.82,10.0,WSW,29.9,41.4,N/A,,Mostly Cloudy,250,2012-12-14 17:19:00
10:47 AM,44.6,37.4,76,29.87,10.0,West,26.5,39.1,N/A,Rain,Light Rain,260,2012-12-14 17:47:00
10:58 AM,44.6,37.4,76,29.83,8.0,West,21.9,36.8,0.01,Rain,Light Rain,260,2012-12-14 17:58:00
11:03 AM,42.8,37.4,81,29.89,4.0,West,25.3,33.4,N/A,Rain,Rain,260,2012-12-14 18:03:00
11:28 AM,42.8,37.4,81,29.87,9.0,West,21.9,28.8,N/A,Rain,Light Rain,270,2012-12-14 18:28:00
11:38 AM,42.8,37.4,81,29.88,10.0,West,19.6,-,N/A,Rain,Light Rain,260,2012-12-14 18:38:00
11:54 AM,42.8,37.4,81,29.89,10.0,WSW,17.3,23.0,N/A,,Clear,240,2012-12-14 18:54:00
11:58 AM,42.1,37.0,82,29.83,10.0,WSW,18.4,23.0,0.03,,Clear,240,2012-12-14 18:58:00
12:58 PM,45.0,35.4,69,29.82,10.0,SE,6.9,-,N/A,,Scattered Clouds,140,2012-12-14 19:58:00
1:31 PM,48.2,37.4,66,29.85,10.0,West,15.0,25.3,N/A,,Partly Cloudy,260,2012-12-14 20:31:00
1:58 PM,49.5,33.6,54,29.77,10.0,WSW,29.9,39.1,0.01,,Clear,240,2012-12-14 20:58:00
2:58 PM,50.0,28.2,43,29.79,10.0,WSW,26.5,41.4,N/A,,Clear,250,2012-12-14 21:58:00
3:58 PM,48.4,28.6,46,29.78,10.0,WSW,25.3,31.1,N/A,,Clear,240,2012-12-14 22:58:00
4:58 PM,45.7,28.4,51,29.83,10.0,WSW,18.4,26.5,N/A,,Clear,240,2012-12-14 23:58:00
5:58 PM,43.9,28.8,55,29.88,10.0,SSW,8.1,-,N/A,,Clear,210,2012-12-15 00:58:00
6:58 PM,43.3,29.1,57,29.90,10.0,SW,13.8,-,N/A,,Clear,220,2012-12-15 01:58:00
7:16 PM,44.6,26.6,49,29.99,10.0,WSW,18.4,26.5,N/A,,Clear,250,2012-12-15 02:16:00
7:58 PM,46.0,25.2,44,29.94,10.0,WSW,12.7,26.5,N/A,,Partly Cloudy,250,2012-12-15 02:58:00
8:58 PM,46.4,26.2,45,29.94,10.0,ENE,3.5,-,N/A,,Mostly Cloudy,70,2012-12-15 03:58:00
9:45 PM,46.4,24.8,43,30.02,10.0,WSW,18.4,-,N/A,,Clear,240,2012-12-15 04:45:00
9:58 PM,45.5,25.7,46,29.93,10.0,WSW,13.8,-,N/A,,Clear,240,2012-12-15 04:58:00
10:58 PM,42.3,26.4,54,29.97,10.0,SSE,2.3,-,N/A,,Clear,150,2012-12-15 05:58:00
11:58 PM,39.7,26.2,59,29.98,10.0,SW,8.1,-,N/A,,Clear,230,2012-12-15 06:58:00